Regional Weather Roundup
Issued by NWS Charleston, SC

Current Version | Previous Version | Graphics & Text | Print | Product List | Glossary On
Versions: 1 2 3 4 5 6 7 8 9 10 11 12 13 14 15 16 17 18 19 20 21 22 23 24 25 26 27 28 29 30 31 32 33 34 35 36 37 38 39 40 41 42 43 44 45 46 47 48 49 50
000
ASUS42 KCHS 241412
RWRCHS

REGIONAL WEATHER ROUNDUP
NATIONAL WEATHER SERVICE CHARLESTON SC
1000 AM EDT WED MAY 24 2017

NOTE: "FAIR" INDICATES FEW OR NO CLOUDS BELOW 12,000 FEET WITH NO
SIGNIFICANT WEATHER AND/OR OBSTRUCTIONS TO VISIBILITY.

NOT ALL STATIONS ARE QUALITY CONTROLLED. USE DATA WITH CAUTION...
ESPECIALLY DEWPOINT OBSERVATIONS.

SCZ027-030-031-034>040-042>050-241500-
...SOUTHEAST SOUTH CAROLINA...

CITY           SKY/WX    TMP DP  RH WIND       PRES   REMARKS
N CHARLESTON   PTSUNNY   78  69  73 SW10      29.68S
WATERFRONT PRK   N/A     77  72  84 SW7       29.67S
JOHNS ISLAND   PTSUNNY   79  72  78 SW13      29.69F
PINOPOLIS        N/A     73  72  94 SW10G17   29.61R
MONCKS CORNER  PTSUNNY   75  70  83 SW8       29.68F
SUMMERVILLE    FAIR      75  70  83 SW5       29.68F
BEAUFORT MCAS  PTSUNNY   79  73  82 S8G21     29.67F
BEAUFORT ARPT  NOT AVBL
HILTON HEAD IS PTSUNNY   79  72  78 S12G21    29.70S
WALTERBORO     CLOUDY    75  70  83 S8        29.68F
ALLENDALE      CLOUDY    75  72  88 S6        29.64F

...SOUTHERN MIDLANDS AND PEE DEE...

CITY           SKY/WX    TMP DP  RH WIND       PRES   REMARKS
GEORGETOWN     CLOUDY    75  72  88 SW10      29.70S
KINGSTREE      CLOUDY   N/A N/A N/A SW3       29.68S
ORANGEBURG     CLOUDY    72  69  90 SW10      29.66F
BARNWELL       CLOUDY    77  72  83 SW5       29.65F
AIKEN          CLOUDY    72  68  88 S6        29.67F
MANNING        CLOUDY    72  72 100 SW21G26   29.67F
COLUMBIA       CLOUDY    73  68  84 SW7       29.63F
SUMTER         CLOUDY    72  68  88 SW10      29.64S
FLORENCE       CLOUDY    73  69  87 SW9       29.67F
MYRTLE BEACH   CLOUDY    75  70  83 SW9       29.70S
N MYRTLE BEACH PTSUNNY   76  70  82 SW15      29.69S

$$

GAZ063-065-086>088-099>101-113>116-118-119-134>141-150-241500-
...SOUTHEAST GEORGIA...

CITY           SKY/WX    TMP DP  RH WIND       PRES   REMARKS
SAVANNAH ARPT  CLOUDY    80  69  69 SW12      29.67F
HUNTER AAF     PTSUNNY   77  75  94 SW10      29.65F
FORT STEWART   CLOUDY    77  70  79 S10       29.65F
STATESBORO     CLOUDY    78  78 100 SW8       29.65F
SYLVANIA       CLOUDY    76  74  92 SW6       29.66F
CLAXTON        PTSUNNY   76  76 100 S5        29.65F

...CSRA...CENTRAL AND FAR SOUTHEAST GEORGIA...

CITY           SKY/WX    TMP DP  RH WIND       PRES   REMARKS
THOMSON        CLOUDY    72  69  92 W5        29.67F
AUGUSTA-BUSH   CLOUDY    76  70  82 SW9       29.62F
AUGUSTA-DANIEL CLOUDY    75  67  76 S7        29.64F
SWAINSBORO     CLOUDY    75  73  94 SW6       29.65F
VIDALIA        CLOUDY    75  72  88 SW8       29.65F
EASTMAN        CLOUDY    76  67  75 S7        29.65S
HAZLEHURST     PTSUNNY   76  74  96 S7        29.63F
ALMA           CLOUDY    76  71  85 S9        29.65F
WAYCROSS       CLOUDY    79  76  91 SW9       29.66F
JESUP          CLOUDY    79  70  73 SW8       29.68F
BAXLEY         CLOUDY    77  77 100 S8        29.65S
BRUNSWICK      CLOUDY    81  73  78 S13       29.71R
SAINT SIMONS   PTSUNNY   79  72  79 S7        29.69F HAZE

$$

SCZ027-028-034-036>038-045-046-048>050-GAZ119-141-241500-
...LAKE AND SUPPLEMENTAL COASTAL OBSERVATIONS...

STATION/POSITION TIME  TEMP    WIND        PRES    WAVE   SWELL
                       AIR SEA DIR/SP/G            HT/PER HT/PER/DIR
                 (UTC) (F)     (DEG/KT/KT) (MB)    (FT/S) (FT/S/D)
WINYAH BAY       1245   74     220/ 11     1005.0
LAKE MURRAY      1320   71     190/  7/  9 1003.4
ACE BASIN NERRS  NOT AVBL
FORT PULASKI     1348   77     220/  9/ 14 1005.5S
SAPELO ISLAND    1300   77     200/ 11     1006.0

$$

ANZ835-935-AMZ111-154-330-350-352-354-370-450-454-472-241500-
...C-MAN AND BUOY OBSERVATIONS...

STATION/POSITION TIME  TEMP    WIND        PRES    WAVE   SWELL
                       AIR SEA DIR/SP/G            HT/PER HT/PER/DIR
                 (UTC) (F)     (DEG/KT/KT) (MB)    (FT/S) (FT/S/D)
BUOY 41004       1350   75 76  220/ 19/ 23 1005.8F   7/ 7   2/190/12
BUOY 41008       1250   78 78  200/ 17/ 19 1005.3    4/ 6
FOLLY BEACH CMAN 1300   77     220/ 14/ 20 1005.9S
CAPERS NEARSHORE 1308   79 77  240/ 17/ 23 1005.1R
FRIPP NEARSHORE  1308   77 78  230/ 17/ 23 1004.5R


STATION/POSITION TIME  TEMP    WIND        PRES    WAVE   SWELL
                       AIR SEA DIR/SP/G            HT/PER HT/PER/DIR
                 (UTC) (F)     (DEG/KT/KT) (MB)    (FT/S) (FT/S/D)
5E ST. MARYS GA  1300      79                N/A     3/ 5
FRYING PAN BUOY  1350   77 77  220/ 19/ 25 1005.6F   8/ 8   5/190/ 8
BUOY 41025       1350   73 74  240/ 10/ 10 1006.4R   5/ 7   5/200/ 7
CAPE LOOKOUT NC  1300   72     250/  5/  5 1005.8R
BUOY 41002       1250   77 76  200/ 21/ 27 1010.6    9/ 7   2/140/11
BUOY 41010       1350   80 79  200/ 14/ 17 1010.1R   7/ 7   5/200/ 7
ST AUGUSTINE FL  1400   74 77  250/  6/  7 1007.4F


$$




USA.gov is the U.S. government's official web portal to all federal, state and local government web resources and services.